User: anonymous   Login
Location: Mascot Post Office (historical)
(40.2645°N, 99.5462°W)
Time: 12:50:57
(UTC+00:00)
Language:

Cosmos 2061 Rocket - Orbit

View from above orbital plane
View from above orbital plane
View from above satellite
View from above satellite

Ground track
Ground track

The orbit data is extracted from the following two-line orbital elements,

1 20528U 90023B   20262.55520101 +.00000140 +00000-0 +13596-3 0  9994
2 20528 082.9316 264.6412 0030926 322.2984 154.7274 13.72874377527950
Epoch (UTC): 18 September 2020 13:19:29
Eccentricity: 0.0030926
inclination: 82.9316°
perigee height: 966 km
apogee height: 1012 km
right ascension of ascending node: 264.6412°
argument of perigee: 322.2984°
revolutions per day: 13.72874377
mean anomaly at epoch: 154.7274°
orbit number at epoch: 52795

The dashed part of the orbit path shows where the satellite is in the earth's shadow,  

DLR